{"data":{"norad_id":67052,"intl_designator":"2025-294Y","name":"STARLINK-35720","alt_names":[],"object_type":"PAYLOAD","status":"ACTIVE","operator":null,"country":"US","launch_date":"2025-12-11","launch_site_code":"AFETR","launch_vehicle":null,"mission":null,"orbit_class":"UNKNOWN","rcs_meters":null,"size_class":null,"mass_kg":null,"dimensions":null,"purposes":["comms"],"wikipedia_slug":null,"has_3d_model":false,"image_url":null,"decayed_at":null,"tle_current":{"epoch":"2026-05-24T22:50:39.935040Z","epoch_age_seconds":79287,"freshness":"FRESH","line1":"1 67052U 25294Y   26144.95185110  .00017552  00000+0  64550-3 0  9991","line2":"2 67052  43.0024 327.2808 0002381 236.9471 123.1152 15.27595844 26464","mean_motion":15.27595844,"eccentricity":0.0002381,"inclination_deg":43.0024,"raan_deg":327.2808,"arg_perigee_deg":236.9471,"mean_anomaly_deg":123.1152,"bstar":0.0006455,"rev_number":2646,"period_min":94.265770992763,"perigee_km":481.36801670039,"apogee_km":484.63529092733,"semimajor_km":6861.1386538139,"source":"CELESTRAK","updated_at":"2026-05-25T13:38:21.441176Z"}}}